Location: Center Berlin
(42.6609°N, 73.3687°W)
Time: 20:15:35
(UTC+00:00)

Cosmos 372 Rocket - Pass Details

Date: 10 September 2024
Orbit: 734 x 765 km, 74.1° (Epoch: 14 October)

Event Time Altitude Azimuth Distance (km) Brightness Sun altitude
Rises 23:32:55 0° 340° (NNW) 3,208 7.7 -4.8°
Reaches altitude 10° 23:35:17 10° 341° (NNW) 2,285 6.9 -5.2°
Maximum altitude 23:40:29 85° 70° (ENE) 766 4.0 -6.2°
Drops below altitude 10° 23:45:41 10° 160° (SSE) 2,287 6.1 -7.1°
Sets 23:48:03 0° 160° (SSE) 3,211 6.9 -7.5°
